sat.trackr.live / text

‹ back to catalog

LEO 1 (LEO VANTAGE 1)

NORAD 43113 · 2018-004C

PAYLOAD ACTIVE UNKNOWN

§ Identity

Operator
Country
US
Launch date
2018-01-12
Launch site
SRILR
Launch vehicle
Mass (kg)
RCS (m²)

External: N2YO · Heavens-Above · Gunter

§ Orbital elements

Epoch: 2026-05-25T00:04:53.620896Z

Period
98.12 min
Inclination
99.2447°
Eccentricity
0.0351161
Mean motion
14.67664004 rev/d
Perigee alt
421.1 km
Apogee alt
916.0 km
Semi-major
7,046.7 km
B*
1.2299e-4
RAAN
60.2705°
Arg perigee
150.4977°
Mean anomaly
211.6556°
Rev number
43,408

§ Raw data

LEO 1 (LEO VANTAGE 1)1 43113U 18004C   26145.00339839  .00001712  00000+0  12299-3 0  99942 43113  99.2447  60.2705 0351161 150.4977 211.6556 14.67664004434082

JSON: /api/v1/satellites/43113 · /tle

For live sub-satellite position, see the globe view (requires WebGL).

§ Visibility from observer

Set your observer location to see the next 7 days of passes ≥ 10°. The values pass through the URL so the page stays shareable.

No JS? Fill the form by hand. The geolocation button needs JavaScript.